Time,TemperatureF,DewpointF,PressureIn,WindDirection,WindDirectionDegrees,WindSpeedMPH,WindSpeedGustMPH,Humidity,HourlyPrecipIn,Conditions,Clouds,dailyrainin,SolarRadiationWatts/m^2,SoftwareType,DateUTC
2013-09-12 02:00:00,67.3,66.1,29.89,NE,45,0.0,0.0,96,0.00,,---,0.00,0.00,VWS V14.01,2013-09-12 06:00:00,
2013-09-12 02:31:00,67.3,66.1,29.89,NE,45,0.0,0.0,96,0.00,,---,0.00,0.00,VWS V14.01,2013-09-12 06:31:00,
2013-09-12 02:32:00,66.9,65.7,29.89,ENE,66,0.0,0.0,96,0.00,,---,0.00,0.00,VWS V14.01,2013-09-12 06:32:00,
2013-09-12 02:37:00,66.9,65.7,29.88,ENE,66,0.0,0.0,96,0.00,,---,0.00,0.00,VWS V14.01,2013-09-12 06:37:00,
2013-09-12 02:42:00,66.9,65.7,29.89,SE,146,0.0,2.0,96,0.00,,---,0.00,0.00,VWS V14.01,2013-09-12 06:42:00,
2013-09-12 02:47:00,66.9,65.7,29.89,SE,143,2.0,2.0,96,0.00,,---,0.00,0.00,VWS V14.01,2013-09-12 06:47:00,
2013-09-12 02:52:00,66.9,65.7,29.89,SE,144,0.0,2.0,96,0.00,,---,0.00,0.00,VWS V14.01,2013-09-12 06:52:00,
2013-09-12 02:57:00,66.9,65.7,29.89,ESE,123,2.0,3.0,96,0.00,,---,0.00,0.00,VWS V14.01,2013-09-12 06:57:00,
2013-09-12 03:02:00,66.9,65.7,29.90,South,191,0.0,3.0,96,0.00,,---,0.00,0.00,VWS V14.01,2013-09-12 07:02:00,
2013-09-12 03:07:00,67.1,65.9,29.90,South,191,0.0,0.0,96,0.00,,---,0.00,0.00,VWS V14.01,2013-09-12 07:07:00,
2013-09-12 03:12:00,67.3,66.1,29.90,South,191,0.0,0.0,96,0.00,,---,0.00,0.00,VWS V14.01,2013-09-12 07:12:00,
2013-09-12 03:17:00,67.3,66.1,29.90,South,190,0.0,1.0,96,0.00,,---,0.00,0.00,VWS V14.01,2013-09-12 07:17:00,
2013-09-12 03:22:00,67.4,66.2,29.90,South,185,0.0,2.0,96,0.00,,---,0.00,0.00,VWS V14.01,2013-09-12 07:22:00,
2013-09-12 03:27:00,67.4,66.2,29.90,South,187,0.0,2.0,96,0.00,,---,0.00,0.00,VWS V14.01,2013-09-12 07:27:00,
2013-09-12 03:32:00,67.4,66.2,29.91,South,188,0.0,0.0,96,0.00,,---,0.00,0.00,VWS V14.01,2013-09-12 07:32:00,
2013-09-12 03:37:00,67.4,66.2,29.91,South,188,0.0,0.0,96,0.00,,---,0.00,0.00,VWS V14.01,2013-09-12 07:37:00,
2013-09-12 03:42:00,67.4,66.2,29.91,South,188,0.0,0.0,96,0.00,,---,0.00,0.00,VWS V14.01,2013-09-12 07:42:00,
2013-09-12 03:47:00,67.4,66.2,29.92,South,188,0.0,0.0,96,0.00,,---,0.00,0.00,VWS V14.01,2013-09-12 07:47:00,
2013-09-12 03:52:00,67.4,66.2,29.92,South,188,0.0,0.0,96,0.00,,---,0.00,0.00,VWS V14.01,2013-09-12 07:52:00,
2013-09-12 03:57:00,67.4,66.2,29.92,South,188,0.0,0.0,96,0.00,,---,0.00,0.00,VWS V14.01,2013-09-12 07:57:00,
2013-09-12 04:02:00,67.4,66.2,29.91,South,188,0.0,0.0,96,0.00,,---,0.00,0.00,VWS V14.01,2013-09-12 08:02:00,
2013-09-12 04:07:00,67.4,66.2,29.92,South,188,0.0,0.0,96,0.00,,---,0.00,0.00,VWS V14.01,2013-09-12 08:07:00,
2013-09-12 04:12:00,67.4,66.2,29.91,South,188,0.0,0.0,96,0.00,,---,0.00,0.00,VWS V14.01,2013-09-12 08:12:00,
2013-09-12 04:17:00,67.4,66.2,29.91,South,188,0.0,0.0,96,0.00,,---,0.00,0.00,VWS V14.01,2013-09-12 08:17:00,
2013-09-12 04:22:00,67.4,66.2,29.91,South,188,0.0,0.0,96,0.00,,---,0.00,0.00,VWS V14.01,2013-09-12 08:22:00,
2013-09-12 04:27:00,67.4,66.2,29.91,South,180,0.0,1.0,96,0.00,,---,0.00,0.00,VWS V14.01,2013-09-12 08:27:00,
2013-09-12 04:32:00,67.4,66.2,29.91,South,180,0.0,0.0,96,0.00,,---,0.00,0.00,VWS V14.01,2013-09-12 08:32:00,
2013-09-12 04:37:00,67.3,66.1,29.90,South,180,0.0,0.0,96,0.00,,---,0.00,0.00,VWS V14.01,2013-09-12 08:37:00,
2013-09-12 04:42:00,67.3,66.1,29.91,South,180,0.0,0.0,96,0.00,,---,0.00,0.00,VWS V14.01,2013-09-12 08:42:00,
2013-09-12 04:47:00,67.3,66.1,29.90,South,180,0.0,0.0,96,0.00,,---,0.00,0.00,VWS V14.01,2013-09-12 08:47:00,
2013-09-12 04:52:00,67.3,66.1,29.90,South,180,0.0,0.0,96,0.00,,---,0.00,0.00,VWS V14.01,2013-09-12 08:52:00,
2013-09-12 04:57:00,67.3,66.1,29.90,South,180,0.0,0.0,96,0.00,,---,0.00,0.00,VWS V14.01,2013-09-12 08:57:00,
2013-09-12 05:02:00,67.3,66.1,29.90,South,180,0.0,0.0,96,0.00,,---,0.00,0.00,VWS V14.01,2013-09-12 09:02:00,
2013-09-12 05:07:00,67.3,66.1,29.90,South,180,0.0,0.0,96,0.00,,---,0.00,0.00,VWS V14.01,2013-09-12 09:07:00,
2013-09-12 05:12:00,67.3,66.1,29.90,South,180,0.0,0.0,96,0.00,,---,0.00,0.00,VWS V14.01,2013-09-12 09:12:00,
2013-09-12 05:17:00,67.1,65.9,29.90,South,180,0.0,0.0,96,0.00,,---,0.00,0.00,VWS V14.01,2013-09-12 09:17:00,
2013-09-12 05:22:00,67.1,65.9,29.90,South,180,0.0,0.0,96,0.00,,---,0.00,0.00,VWS V14.01,2013-09-12 09:22:00,
2013-09-12 05:27:00,67.1,65.9,29.90,South,180,0.0,0.0,96,0.00,,---,0.00,0.00,VWS V14.01,2013-09-12 09:27:00,
2013-09-12 05:32:00,67.1,65.9,29.89,South,180,0.0,0.0,96,0.00,,---,0.00,0.00,VWS V14.01,2013-09-12 09:32:00,
2013-09-12 05:37:00,66.9,65.7,29.89,South,180,0.0,0.0,96,0.00,,---,0.00,0.00,VWS V14.01,2013-09-12 09:37:00,
2013-09-12 05:42:00,66.9,65.7,29.89,South,180,0.0,0.0,96,0.00,,---,0.00,0.00,VWS V14.01,2013-09-12 09:42:00,
2013-09-12 05:47:00,66.8,65.6,29.89,South,180,0.0,0.0,96,0.00,,---,0.00,0.00,VWS V14.01,2013-09-12 09:47:00,
2013-09-12 05:52:00,66.8,65.6,29.89,South,180,0.0,0.0,96,0.00,,---,0.00,0.00,VWS V14.01,2013-09-12 09:52:00,
2013-09-12 05:57:00,66.8,65.6,29.89,South,180,0.0,0.0,96,0.00,,---,0.00,0.00,VWS V14.01,2013-09-12 09:57:00,
2013-09-12 06:02:00,66.6,65.4,29.90,South,180,0.0,0.0,96,0.00,,---,0.00,0.00,VWS V14.01,2013-09-12 10:02:00,
2013-09-12 06:07:00,66.6,65.4,29.90,South,180,0.0,0.0,96,0.00,,---,0.00,0.00,VWS V14.01,2013-09-12 10:07:00,
2013-09-12 06:12:00,66.4,65.2,29.90,South,180,0.0,0.0,96,0.00,,---,0.00,0.00,VWS V14.01,2013-09-12 10:12:00,
2013-09-12 06:17:00,66.4,65.5,29.90,South,180,0.0,0.0,97,0.00,,---,0.00,0.00,VWS V14.01,2013-09-12 10:17:00,
2013-09-12 06:22:00,66.4,65.2,29.90,South,180,0.0,0.0,96,0.00,,---,0.00,5.00,VWS V14.01,2013-09-12 10:22:00,
2013-09-12 06:27:00,66.3,65.1,29.89,South,180,0.0,0.0,96,0.00,,---,0.00,9.00,VWS V14.01,2013-09-12 10:27:00,
2013-09-12 06:32:00,66.3,65.4,29.89,South,180,0.0,0.0,97,0.00,,---,0.00,12.00,VWS V14.01,2013-09-12 10:32:00,
2013-09-12 06:37:00,66.3,65.4,29.89,South,180,0.0,0.0,97,0.00,,---,0.00,21.00,VWS V14.01,2013-09-12 10:37:00,
2013-09-12 06:42:00,66.3,65.4,29.89,South,180,0.0,0.0,97,0.00,,---,0.00,26.00,VWS V14.01,2013-09-12 10:42:00,
2013-09-12 06:47:00,66.3,65.4,29.89,South,180,0.0,0.0,97,0.00,,---,0.00,30.00,VWS V14.01,2013-09-12 10:47:00,
2013-09-12 06:52:00,66.3,65.4,29.89,South,180,0.0,0.0,97,0.00,,---,0.00,33.00,VWS V14.01,2013-09-12 10:52:00,
2013-09-12 06:57:00,66.3,65.4,29.89,South,180,0.0,0.0,97,0.00,,---,0.00,42.00,VWS V14.01,2013-09-12 10:57:00,
2013-09-12 07:02:00,66.4,65.5,29.89,South,180,0.0,0.0,97,0.00,,---,0.00,56.00,VWS V14.01,2013-09-12 11:02:00,
2013-09-12 07:07:00,66.4,65.5,29.89,South,180,0.0,0.0,97,0.00,,---,0.00,54.00,VWS V14.01,2013-09-12 11:07:00,
2013-09-12 07:12:00,66.6,65.7,29.89,South,180,0.0,0.0,97,0.00,,---,0.00,70.00,VWS V14.01,2013-09-12 11:12:00,
2013-09-12 07:17:00,66.6,65.7,29.89,South,180,0.0,0.0,97,0.00,,---,0.00,79.00,VWS V14.01,2013-09-12 11:17:00,
2013-09-12 07:22:00,66.8,66.2,29.89,South,180,0.0,0.0,98,0.00,,---,0.00,70.00,VWS V14.01,2013-09-12 11:22:00,
2013-09-12 07:27:00,67.1,66.5,29.89,South,180,0.0,0.0,98,0.00,,---,0.00,67.00,VWS V14.01,2013-09-12 11:27:00,
2013-09-12 07:32:00,67.1,66.5,29.89,South,180,0.0,0.0,98,0.00,,---,0.00,65.00,VWS V14.01,2013-09-12 11:32:00,
2013-09-12 07:37:00,67.3,66.7,29.89,South,180,0.0,0.0,98,0.00,,---,0.00,100.00,VWS V14.01,2013-09-12 11:37:00,
2013-09-12 07:42:00,67.4,66.8,29.88,South,180,0.0,0.0,98,0.00,,---,0.00,114.00,VWS V14.01,2013-09-12 11:42:00,
2013-09-12 07:47:00,67.6,67.0,29.89,South,180,0.0,0.0,98,0.00,,---,0.00,97.00,VWS V14.01,2013-09-12 11:47:00,
2013-09-12 07:52:00,67.8,67.2,29.89,South,180,0.0,0.0,98,0.00,,---,0.00,79.00,VWS V14.01,2013-09-12 11:52:00,
2013-09-12 07:57:00,67.9,67.3,29.88,South,180,0.0,0.0,98,0.00,,---,0.00,76.00,VWS V14.01,2013-09-12 11:57:00,
2013-09-12 08:02:00,67.9,67.3,29.88,South,180,0.0,0.0,98,0.00,,---,0.00,62.00,VWS V14.01,2013-09-12 12:02:00,
2013-09-12 08:07:00,68.1,67.5,29.88,South,180,0.0,0.0,98,0.00,,---,0.00,44.00,VWS V14.01,2013-09-12 12:07:00,
2013-09-12 08:12:00,68.1,67.5,29.87,South,180,0.0,0.0,98,0.00,,---,0.00,39.00,VWS V14.01,2013-09-12 12:12:00,
2013-09-12 08:18:00,68.1,67.5,29.87,South,180,0.0,0.0,98,0.00,,---,0.00,35.00,VWS V14.01,2013-09-12 12:18:00,
2013-09-12 08:23:00,68.1,67.5,29.87,South,180,0.0,0.0,98,0.00,,---,0.00,37.00,VWS V14.01,2013-09-12 12:23:00,
2013-09-12 08:28:00,68.1,67.5,29.88,South,180,0.0,0.0,98,0.00,,---,0.00,35.00,VWS V14.01,2013-09-12 12:28:00,
2013-09-12 08:33:00,68.1,67.5,29.87,South,180,0.0,0.0,98,0.00,,---,0.00,46.00,VWS V14.01,2013-09-12 12:33:00,
2013-09-12 08:38:00,68.1,67.5,29.87,South,180,0.0,0.0,98,0.01,,---,0.01,54.00,VWS V14.01,2013-09-12 12:38:00,
2013-09-12 08:42:00,68.1,67.5,29.87,South,180,0.0,0.0,98,0.01,,---,0.01,72.00,VWS V14.01,2013-09-12 12:42:00,
2013-09-12 08:47:00,68.3,67.7,29.86,South,180,0.0,0.0,98,0.01,,---,0.01,109.00,VWS V14.01,2013-09-12 12:47:00,
2013-09-12 08:53:00,68.3,67.7,29.86,South,180,0.0,0.0,98,0.01,,---,0.01,113.00,VWS V14.01,2013-09-12 12:53:00,
2013-09-12 08:58:00,68.4,67.8,29.86,South,180,0.0,0.0,98,0.01,,---,0.01,105.00,VWS V14.01,2013-09-12 12:58:00,
2013-09-12 09:03:00,68.6,68.0,29.86,South,180,0.0,0.0,98,0.01,,---,0.01,127.00,VWS V14.01,2013-09-12 13:03:00,
2013-09-12 09:08:00,68.6,68.0,29.86,South,180,0.0,0.0,98,0.01,,---,0.01,176.00,VWS V14.01,2013-09-12 13:08:00,
2013-09-12 09:13:00,68.9,68.3,29.86,South,180,0.0,0.0,98,0.01,,---,0.01,271.00,VWS V14.01,2013-09-12 13:13:00,
2013-09-12 09:18:00,69.1,68.5,29.86,South,180,0.0,0.0,98,0.01,,---,0.01,287.00,VWS V14.01,2013-09-12 13:18:00,
2013-09-12 09:23:00,69.3,68.7,29.85,South,180,0.0,0.0,98,0.01,,---,0.01,246.00,VWS V14.01,2013-09-12 13:23:00,
2013-09-12 09:28:00,69.6,69.0,29.85,South,180,0.0,0.0,98,0.01,,---,0.01,204.00,VWS V14.01,2013-09-12 13:28:00,
2013-09-12 09:33:00,69.9,69.6,29.85,South,180,0.0,0.0,99,0.01,,---,0.01,225.00,VWS V14.01,2013-09-12 13:33:00,
2013-09-12 09:38:00,69.6,68.7,29.85,South,180,0.0,0.0,97,0.01,,---,0.01,225.00,VWS V14.01,2013-09-12 13:38:00,
2013-09-12 09:43:00,70.1,68.9,29.85,South,180,0.0,0.0,96,0.01,,---,0.01,209.00,VWS V14.01,2013-09-12 13:43:00,
2013-09-12 09:48:00,70.6,69.4,29.85,South,180,0.0,0.0,96,0.00,,---,0.01,144.00,VWS V14.01,2013-09-12 13:48:00,
2013-09-12 09:53:00,70.6,69.4,29.85,South,180,0.0,0.0,96,0.00,,---,0.01,137.00,VWS V14.01,2013-09-12 13:53:00,
2013-09-12 09:58:00,70.3,69.1,29.84,South,180,0.0,0.0,96,0.00,,---,0.01,148.00,VWS V14.01,2013-09-12 13:58:00,
2013-09-12 10:03:00,70.3,69.4,29.84,South,180,0.0,0.0,97,0.00,,---,0.01,209.00,VWS V14.01,2013-09-12 14:03:00,
2013-09-12 10:08:00,70.6,70.0,29.83,South,180,0.0,0.0,98,0.00,,---,0.01,362.00,VWS V14.01,2013-09-12 14:08:00,
2013-09-12 10:13:00,71.3,70.7,29.83,South,180,0.0,0.0,98,0.00,,---,0.01,246.00,VWS V14.01,2013-09-12 14:13:00,
2013-09-12 10:18:00,71.6,71.0,29.83,South,180,0.0,0.0,98,0.00,,---,0.01,380.00,VWS V14.01,2013-09-12 14:18:00,
2013-09-12 10:23:00,72.0,71.4,29.84,South,180,0.0,0.0,98,0.00,,---,0.01,302.00,VWS V14.01,2013-09-12 14:23:00,
2013-09-12 10:28:00,72.1,71.2,29.83,South,180,0.0,0.0,97,0.00,,---,0.01,673.00,VWS V14.01,2013-09-12 14:28:00,
2013-09-12 10:33:00,72.1,71.2,29.83,South,180,0.0,0.0,97,0.00,,---,0.01,225.00,VWS V14.01,2013-09-12 14:33:00,
2013-09-12 10:38:00,72.0,70.8,29.83,South,180,0.0,0.0,96,0.00,,---,0.01,188.00,VWS V14.01,2013-09-12 14:38:00,
2013-09-12 10:43:00,72.1,70.9,29.83,South,180,0.0,0.0,96,0.00,,---,0.01,227.00,VWS V14.01,2013-09-12 14:43:00,
2013-09-12 10:48:00,72.0,70.8,29.83,South,180,0.0,0.0,96,0.00,,---,0.01,91.00,VWS V14.01,2013-09-12 14:48:00,
2013-09-12 10:53:00,72.0,70.8,29.82,South,180,0.0,0.0,96,0.00,,---,0.01,62.00,VWS V14.01,2013-09-12 14:53:00,
2013-09-12 11:16:00,70.1,68.9,29.82,ESE,117,0.0,0.0,96,0.33,,---,0.34,19.00,VWS V14.01,2013-09-12 15:16:00,
2013-09-12 11:21:00,69.4,68.5,29.82,ESE,117,0.0,0.0,97,0.33,,---,0.34,16.00,VWS V14.01,2013-09-12 15:21:00,
2013-09-12 11:26:00,69.4,68.8,29.82,SSE,161,0.0,0.0,98,0.33,,---,0.34,21.00,VWS V14.01,2013-09-12 15:26:00,
2013-09-12 11:31:00,69.1,68.2,29.80,SSE,160,0.0,4.0,97,0.35,,---,0.36,84.00,VWS V14.01,2013-09-12 15:31:00,
2013-09-12 11:36:00,69.3,69.0,29.80,SSE,160,0.0,0.0,99,0.35,,---,0.36,167.00,VWS V14.01,2013-09-12 15:36:00,
2013-09-12 11:41:00,69.3,69.0,29.81,SSE,160,0.0,0.0,99,0.35,,---,0.36,163.00,VWS V14.01,2013-09-12 15:41:00,
2013-09-12 11:48:00,69.3,69.0,29.81,SSE,160,0.0,0.0,99,0.35,,---,0.36,72.00,VWS V14.01,2013-09-12 15:48:00,
2013-09-12 11:53:00,69.4,69.1,29.81,SSE,160,0.0,0.0,99,0.35,,---,0.36,47.00,VWS V14.01,2013-09-12 15:53:00,
2013-09-12 11:58:00,69.4,69.1,29.80,SSE,160,0.0,0.0,99,0.35,,---,0.36,98.00,VWS V14.01,2013-09-12 15:58:00,
2013-09-12 12:03:00,69.6,69.3,29.80,SSE,160,0.0,0.0,99,0.29,,---,0.36,69.00,VWS V14.01,2013-09-12 16:03:00,
2013-09-12 12:08:00,69.8,69.5,29.80,SSE,160,0.0,0.0,99,0.30,,---,0.37,37.00,VWS V14.01,2013-09-12 16:08:00,
2013-09-12 12:18:00,69.6,69.3,29.80,SSE,159,0.0,0.0,99,0.11,,---,0.45,35.00,VWS V14.01,2013-09-12 16:18:00,
2013-09-12 12:23:00,69.1,68.8,29.79,SSE,159,0.0,0.0,99,0.15,,---,0.49,79.00,VWS V14.01,2013-09-12 16:23:00,
2013-09-12 12:28:00,70.1,70.1,29.79,SSE,159,0.0,1.0,100,0.15,,---,0.49,385.00,VWS V14.01,2013-09-12 16:28:00,
2013-09-12 12:33:00,70.1,70.1,29.79,SSE,158,0.0,0.0,100,0.13,,---,0.49,299.00,VWS V14.01,2013-09-12 16:33:00,
2013-09-12 12:38:00,70.8,70.8,29.79,SSE,158,0.0,0.0,100,0.13,,---,0.49,360.00,VWS V14.01,2013-09-12 16:38:00,
2013-09-12 12:43:00,71.6,71.6,29.79,SSE,156,0.0,0.0,100,0.13,,---,0.49,550.00,VWS V14.01,2013-09-12 16:43:00,
2013-09-12 12:48:00,72.5,72.5,29.79,SSE,156,0.0,0.0,100,0.13,,---,0.49,694.00,VWS V14.01,2013-09-12 16:48:00,
2013-09-12 12:53:00,72.8,72.8,29.78,SSE,155,0.0,0.0,100,0.13,,---,0.49,640.00,VWS V14.01,2013-09-12 16:53:00,
2013-09-12 12:58:00,73.7,73.7,29.78,SSE,155,0.0,1.0,100,0.13,,---,0.49,283.00,VWS V14.01,2013-09-12 16:58:00,
2013-09-12 13:03:00,73.7,73.4,29.78,SE,141,0.0,1.0,99,0.13,,---,0.49,269.00,VWS V14.01,2013-09-12 17:03:00,
2013-09-12 13:08:00,73.5,73.2,29.78,SE,141,0.0,1.0,99,0.13,,---,0.49,322.00,VWS V14.01,2013-09-12 17:08:00,
2013-09-12 13:13:00,73.9,73.6,29.78,SE,141,0.0,1.0,99,0.13,,---,0.49,454.00,VWS V14.01,2013-09-12 17:13:00,
2013-09-12 13:18:00,74.4,74.1,29.77,SE,141,0.0,0.0,99,0.07,,---,0.49,318.00,VWS V14.01,2013-09-12 17:18:00,
2013-09-12 13:23:00,74.9,74.3,29.77,WNW,294,0.0,2.0,98,0.07,,---,0.49,302.00,VWS V14.01,2013-09-12 17:23:00,
2013-09-12 13:28:00,75.3,74.1,29.77,ENE,67,0.0,5.0,96,0.07,,---,0.49,362.00,VWS V14.01,2013-09-12 17:28:00,
2013-09-12 13:33:00,75.6,73.8,29.77,South,181,0.0,0.0,94,0.00,,---,0.49,325.00,VWS V14.01,2013-09-12 17:33:00,
2013-09-12 13:38:00,75.6,73.4,29.76,SSE,168,0.0,1.0,93,0.00,,---,0.49,251.00,VWS V14.01,2013-09-12 17:38:00,
2013-09-12 13:43:00,75.6,73.4,29.76,South,169,0.0,2.0,93,0.00,,---,0.49,204.00,VWS V14.01,2013-09-12 17:43:00,
2013-09-12 13:48:00,75.4,72.6,29.76,SSW,213,0.0,0.0,91,0.01,,---,0.50,197.00,VWS V14.01,2013-09-12 17:48:00,
2013-09-12 13:53:00,75.4,72.9,29.76,SSW,213,0.0,0.0,92,0.01,,---,0.50,127.00,VWS V14.01,2013-09-12 17:53:00,
2013-09-12 13:58:00,75.1,72.9,29.76,SSW,213,0.0,0.0,93,0.01,,---,0.50,132.00,VWS V14.01,2013-09-12 17:58:00,
2013-09-12 14:03:00,75.1,73.3,29.76,SSW,213,0.0,0.0,94,0.01,,---,0.50,141.00,VWS V14.01,2013-09-12 18:03:00,
2013-09-12 15:19:00,73.0,72.4,29.73,SSW,211,0.0,0.0,98,0.03,,---,0.53,7.00,VWS V14.01,2013-09-12 19:19:00,
2013-09-12 15:24:00,73.0,72.4,29.72,SSW,211,0.0,0.0,98,0.05,,---,0.55,11.00,VWS V14.01,2013-09-12 19:24:00,
2013-09-12 15:29:00,73.0,72.4,29.72,SSW,209,0.0,0.0,98,0.05,,---,0.55,14.00,VWS V14.01,2013-09-12 19:29:00,
2013-09-12 15:34:00,72.8,72.5,29.72,SSW,209,0.0,0.0,99,0.06,,---,0.56,18.00,VWS V14.01,2013-09-12 19:34:00,
2013-09-12 15:39:00,72.8,72.5,29.72,SSW,209,0.0,1.0,99,0.07,,---,0.57,30.00,VWS V14.01,2013-09-12 19:39:00,
2013-09-12 15:44:00,72.7,72.4,29.72,SSW,208,0.0,1.0,99,0.08,,---,0.58,51.00,VWS V14.01,2013-09-12 19:44:00,
2013-09-12 15:49:00,72.3,72.0,29.73,WSW,244,0.0,3.0,99,0.09,,---,0.59,58.00,VWS V14.01,2013-09-12 19:49:00,
2013-09-12 15:54:00,72.1,71.5,29.73,WSW,244,0.0,3.0,98,0.09,,---,0.59,74.00,VWS V14.01,2013-09-12 19:54:00,
2013-09-12 15:59:00,71.3,70.4,29.72,WSW,244,0.0,3.0,97,0.10,,---,0.60,86.00,VWS V14.01,2013-09-12 19:59:00,
2013-09-12 16:04:00,71.1,70.2,29.73,SW,219,0.0,0.0,97,0.08,,---,0.60,70.00,VWS V14.01,2013-09-12 20:04:00,
2013-09-12 16:09:00,70.9,70.0,29.72,South,190,0.0,4.0,97,0.08,,---,0.60,40.00,VWS V14.01,2013-09-12 20:09:00,
2013-09-12 16:14:00,70.8,69.9,29.71,SSE,148,0.0,4.0,97,0.08,,---,0.60,35.00,VWS V14.01,2013-09-12 20:14:00,
2013-09-12 16:19:00,70.8,69.9,29.71,East,98,0.0,0.0,97,0.07,,---,0.60,19.00,VWS V14.01,2013-09-12 20:19:00,
2013-09-12 16:24:00,70.8,69.9,29.72,ESE,112,0.0,0.0,97,0.07,,---,0.60,11.00,VWS V14.01,2013-09-12 20:24:00,
2013-09-12 16:29:00,70.6,69.7,29.72,ENE,73,0.0,3.0,97,0.07,,---,0.60,7.00,VWS V14.01,2013-09-12 20:29:00,
2013-09-12 16:34:00,70.3,69.4,29.71,ENE,72,0.0,0.0,97,0.05,,---,0.61,5.00,VWS V14.01,2013-09-12 20:34:00,
2013-09-12 16:39:00,70.1,69.2,29.72,ENE,72,0.0,0.0,97,0.06,,---,0.62,5.00,VWS V14.01,2013-09-12 20:39:00,
2013-09-12 16:44:00,69.8,68.9,29.71,ENE,72,0.0,0.0,97,0.07,,---,0.63,5.00,VWS V14.01,2013-09-12 20:44:00,
2013-09-12 16:49:00,69.6,69.0,29.72,ENE,72,0.0,0.0,98,0.06,,---,0.64,0.00,VWS V14.01,2013-09-12 20:49:00,
2013-09-12 16:54:00,69.3,68.7,29.73,WSW,250,0.0,4.0,98,0.07,,---,0.65,0.00,VWS V14.01,2013-09-12 20:54:00,
2013-09-12 16:59:00,69.1,68.5,29.73,SSW,205,0.0,4.0,98,0.08,,---,0.66,0.00,VWS V14.01,2013-09-12 20:59:00,
2013-09-12 17:04:00,68.9,68.0,29.72,SE,145,0.0,1.0,97,0.07,,---,0.67,0.00,VWS V14.01,2013-09-12 21:04:00,
2013-09-12 17:09:00,68.8,67.9,29.72,South,179,0.0,3.0,97,0.07,,---,0.67,0.00,VWS V14.01,2013-09-12 21:09:00,
2013-09-12 17:14:00,68.6,67.7,29.71,SSW,196,0.0,3.0,97,0.07,,---,0.67,0.00,VWS V14.01,2013-09-12 21:14:00,
2013-09-12 17:19:00,68.6,67.7,29.70,South,191,0.0,3.0,97,0.08,,---,0.68,0.00,VWS V14.01,2013-09-12 21:19:00,
2013-09-12 17:24:00,68.6,67.7,29.70,SSW,207,1.0,3.0,97,0.09,,---,0.69,0.00,VWS V14.01,2013-09-12 21:24:00,
2013-09-12 17:29:00,68.6,68.0,29.69,SE,136,0.0,3.0,98,0.10,,---,0.70,0.00,VWS V14.01,2013-09-12 21:29:00,
2013-09-12 17:34:00,68.6,68.0,29.70,SSE,156,0.0,1.0,98,0.09,,---,0.70,0.00,VWS V14.01,2013-09-12 21:34:00,
2013-09-12 17:39:00,68.4,67.8,29.70,SSE,156,0.0,1.0,98,0.09,,---,0.70,0.00,VWS V14.01,2013-09-12 21:39:00,
2013-09-12 17:44:00,68.3,67.7,29.69,South,179,0.0,3.0,98,0.09,,---,0.70,0.00,VWS V14.01,2013-09-12 21:44:00,
2013-09-12 17:49:00,68.3,67.7,29.69,South,179,0.0,0.0,98,0.07,,---,0.71,0.00,VWS V14.01,2013-09-12 21:49:00,
2013-09-12 17:54:00,68.3,67.7,29.69,South,179,0.0,0.0,98,0.07,,---,0.71,0.00,VWS V14.01,2013-09-12 21:54:00,
2013-09-12 17:59:00,68.1,67.5,29.70,South,179,0.0,0.0,98,0.08,,---,0.72,0.00,VWS V14.01,2013-09-12 21:59:00,
2013-09-12 18:04:00,68.1,67.8,29.71,South,179,0.0,0.0,99,0.07,,---,0.73,0.00,VWS V14.01,2013-09-12 22:04:00,
2013-09-12 18:09:00,67.9,67.6,29.71,South,179,0.0,0.0,99,0.08,,---,0.74,0.00,VWS V14.01,2013-09-12 22:09:00,
2013-09-12 18:14:00,67.9,67.6,29.72,South,179,0.0,0.0,99,0.09,,---,0.75,0.00,VWS V14.01,2013-09-12 22:14:00,
2013-09-12 18:19:00,67.9,67.6,29.73,South,179,0.0,0.0,99,0.09,,---,0.77,0.00,VWS V14.01,2013-09-12 22:19:00,
2013-09-12 18:24:00,67.9,67.6,29.72,South,179,0.0,0.0,99,0.09,,---,0.77,0.00,VWS V14.01,2013-09-12 22:24:00,
2013-09-12 18:29:00,67.9,67.6,29.72,South,179,0.0,0.0,99,0.10,,---,0.78,0.00,VWS V14.01,2013-09-12 22:29:00,
2013-09-12 18:34:00,67.8,67.5,29.71,South,179,0.0,0.0,99,0.08,,---,0.78,0.00,VWS V14.01,2013-09-12 22:34:00,
2013-09-12 18:39:00,67.6,67.3,29.71,South,179,0.0,0.0,99,0.08,,---,0.78,0.00,VWS V14.01,2013-09-12 22:39:00,
2013-09-12 18:44:00,67.6,67.6,29.70,South,179,0.0,0.0,100,0.08,,---,0.78,0.00,VWS V14.01,2013-09-12 22:44:00,
2013-09-12 18:49:00,67.6,67.6,29.69,South,179,0.0,0.0,100,0.08,,---,0.78,0.00,VWS V14.01,2013-09-12 22:49:00,
2013-09-12 18:54:00,67.4,67.4,29.69,South,179,0.0,0.0,100,0.08,,---,0.78,0.00,VWS V14.01,2013-09-12 22:54:00,
2013-09-12 18:59:00,67.4,67.4,29.69,South,179,0.0,0.0,100,0.08,,---,0.78,0.00,VWS V14.01,2013-09-12 22:59:00,
2013-09-12 19:04:00,67.4,67.4,29.68,South,179,0.0,0.0,100,0.05,,---,0.78,0.00,VWS V14.01,2013-09-12 23:04:00,
2013-09-12 19:09:00,67.3,67.3,29.68,SE,138,0.0,3.0,100,0.05,,---,0.78,0.00,VWS V14.01,2013-09-12 23:09:00,
2013-09-12 19:14:00,67.3,67.3,29.68,SE,138,0.0,3.0,100,0.06,,---,0.79,0.00,VWS V14.01,2013-09-12 23:14:00,
2013-09-12 19:19:00,67.1,67.1,29.69,SE,138,0.0,0.0,100,0.03,,---,0.79,0.00,VWS V14.01,2013-09-12 23:19:00,
2013-09-12 19:24:00,67.3,67.3,29.69,SE,138,0.0,0.0,100,0.03,,---,0.79,0.00,VWS V14.01,2013-09-12 23:24:00,
2013-09-12 19:29:00,67.1,67.1,29.69,SE,138,0.0,0.0,100,0.03,,---,0.79,0.00,VWS V14.01,2013-09-12 23:29:00,
2013-09-12 19:34:00,67.1,67.1,29.70,SE,138,0.0,0.0,100,0.01,,---,0.79,0.00,VWS V14.01,2013-09-12 23:34:00,
2013-09-12 19:39:00,66.9,66.9,29.70,SE,138,0.0,0.0,100,0.01,,---,0.79,0.00,VWS V14.01,2013-09-12 23:39:00,
2013-09-12 19:44:00,66.9,66.9,29.71,SE,138,0.0,0.0,100,0.01,,---,0.79,0.00,VWS V14.01,2013-09-12 23:44:00,
2013-09-12 19:49:00,66.9,66.9,29.71,SE,138,0.0,0.0,100,0.01,,---,0.79,0.00,VWS V14.01,2013-09-12 23:49:00,
2013-09-12 19:54:00,66.8,66.8,29.71,SE,138,0.0,0.0,100,0.01,,---,0.79,0.00,VWS V14.01,2013-09-12 23:54:00,
2013-09-12 19:59:00,66.8,66.8,29.70,SE,138,0.0,0.0,100,0.02,,---,0.80,0.00,VWS V14.01,2013-09-12 23:59:00,
2013-09-12 20:04:00,66.8,66.8,29.70,SE,138,0.0,0.0,100,0.03,,---,0.81,0.00,VWS V14.01,2013-09-13 00:04:00,
2013-09-12 20:09:00,66.6,66.6,29.70,SE,138,0.0,0.0,100,0.04,,---,0.82,0.00,VWS V14.01,2013-09-13 00:09:00,
2013-09-12 20:14:00,66.6,66.6,29.71,SE,138,0.0,0.0,100,0.05,,---,0.83,0.00,VWS V14.01,2013-09-13 00:14:00,
2013-09-12 20:19:00,66.4,66.4,29.70,SE,138,0.0,0.0,100,0.04,,---,0.83,0.00,VWS V14.01,2013-09-13 00:19:00,
2013-09-12 20:24:00,66.4,66.4,29.71,SE,138,0.0,0.0,100,0.04,,---,0.83,0.00,VWS V14.01,2013-09-13 00:24:00,
2013-09-12 20:29:00,66.4,66.4,29.71,SE,138,0.0,0.0,100,0.05,,---,0.84,0.00,VWS V14.01,2013-09-13 00:29:00,
2013-09-12 20:35:00,66.3,66.3,29.70,SE,138,0.0,0.0,100,0.05,,---,0.84,0.00,VWS V14.01,2013-09-13 00:35:00,
2013-09-12 20:40:00,66.4,66.4,29.70,SE,138,0.0,0.0,100,0.07,,---,0.86,0.00,VWS V14.01,2013-09-13 00:40:00,
2013-09-12 20:45:00,66.4,66.4,29.70,SE,138,0.0,0.0,100,0.08,,---,0.87,0.00,VWS V14.01,2013-09-13 00:45:00,
2013-09-12 20:50:00,66.4,66.4,29.70,SE,138,0.0,0.0,100,0.10,,---,0.89,0.00,VWS V14.01,2013-09-13 00:50:00,
2013-09-12 20:55:00,66.3,66.3,29.70,SE,138,0.0,0.0,100,0.12,,---,0.91,0.00,VWS V14.01,2013-09-13 00:55:00,
2013-09-12 21:00:00,66.3,66.3,29.69,SE,138,0.0,0.0,100,0.14,,---,0.93,0.00,VWS V14.01,2013-09-13 01:00:00,
2013-09-12 21:05:00,66.1,66.1,29.69,SE,138,0.0,0.0,100,0.14,,---,0.94,0.00,VWS V14.01,2013-09-13 01:05:00,
2013-09-12 21:10:00,66.1,66.1,29.68,SE,138,0.0,0.0,100,0.14,,---,0.94,0.00,VWS V14.01,2013-09-13 01:10:00,
2013-09-12 21:15:00,66.0,66.0,29.68,SE,138,0.0,0.0,100,0.15,,---,0.95,0.00,VWS V14.01,2013-09-13 01:15:00,
2013-09-12 21:20:00,66.0,66.0,29.68,SE,138,0.0,0.0,100,0.12,,---,0.95,0.00,VWS V14.01,2013-09-13 01:20:00,
2013-09-12 21:25:00,66.0,66.0,29.69,SE,138,0.0,0.0,100,0.12,,---,0.95,0.00,VWS V14.01,2013-09-13 01:25:00,
2013-09-12 21:30:00,66.0,66.0,29.69,SE,138,0.0,0.0,100,0.12,,---,0.95,0.00,VWS V14.01,2013-09-13 01:30:00,
2013-09-12 21:35:00,66.0,66.0,29.69,SE,138,0.0,0.0,100,0.11,,---,0.95,0.00,VWS V14.01,2013-09-13 01:35:00,
2013-09-12 21:40:00,66.0,66.0,29.69,SE,138,0.0,0.0,100,0.11,,---,0.95,0.00,VWS V14.01,2013-09-13 01:40:00,
2013-09-12 21:45:00,66.0,66.0,29.69,SE,138,0.0,0.0,100,0.11,,---,0.95,0.00,VWS V14.01,2013-09-13 01:45:00,
2013-09-12 21:50:00,66.0,66.0,29.69,SE,138,0.0,0.0,100,0.07,,---,0.95,0.00,VWS V14.01,2013-09-13 01:50:00,
2013-09-12 21:55:00,66.0,66.0,29.69,SE,138,0.0,0.0,100,0.07,,---,0.95,0.00,VWS V14.01,2013-09-13 01:55:00,
2013-09-12 22:00:00,65.8,65.8,29.69,SE,138,0.0,0.0,100,0.07,,---,0.95,0.00,VWS V14.01,2013-09-13 02:00:00,
2013-09-12 22:05:00,65.8,65.8,29.69,SE,138,0.0,0.0,100,0.02,,---,0.95,0.00,VWS V14.01,2013-09-13 02:05:00,
2013-09-12 22:10:00,65.8,65.8,29.69,SE,138,0.0,0.0,100,0.02,,---,0.95,0.00,VWS V14.01,2013-09-13 02:10:00,
2013-09-12 22:15:00,65.8,65.8,29.69,SE,138,0.0,0.0,100,0.02,,---,0.95,0.00,VWS V14.01,2013-09-13 02:15:00,
2013-09-12 22:20:00,65.8,65.8,29.69,SE,138,0.0,0.0,100,0.00,,---,0.95,0.00,VWS V14.01,2013-09-13 02:20:00,
2013-09-12 22:25:00,65.6,65.6,29.69,SE,138,0.0,0.0,100,0.00,,---,0.95,0.00,VWS V14.01,2013-09-13 02:25:00,
2013-09-12 22:30:00,65.8,65.8,29.69,SE,138,0.0,0.0,100,0.00,,---,0.95,0.00,VWS V14.01,2013-09-13 02:30:00,
2013-09-12 22:35:00,65.8,65.8,29.69,SE,138,0.0,0.0,100,0.00,,---,0.95,0.00,VWS V14.01,2013-09-13 02:35:00,
2013-09-12 22:40:00,65.8,65.8,29.69,SE,138,0.0,0.0,100,0.00,,---,0.95,0.00,VWS V14.01,2013-09-13 02:40:00,
2013-09-12 22:45:00,65.8,65.8,29.69,SE,138,0.0,0.0,100,0.00,,---,0.95,0.00,VWS V14.01,2013-09-13 02:45:00,
2013-09-12 22:50:00,65.8,65.8,29.69,SE,138,0.0,0.0,100,0.00,,---,0.95,0.00,VWS V14.01,2013-09-13 02:50:00,
2013-09-12 22:55:00,65.8,65.8,29.68,SE,138,0.0,0.0,100,0.01,,---,0.96,0.00,VWS V14.01,2013-09-13 02:55:00,
2013-09-12 23:00:00,65.8,65.8,29.68,SE,138,0.0,0.0,100,0.02,,---,0.97,0.00,VWS V14.01,2013-09-13 03:00:00,
2013-09-12 23:05:00,66.0,66.0,29.67,SE,138,0.0,0.0,100,0.03,,---,0.98,0.00,VWS V14.01,2013-09-13 03:05:00,
2013-09-12 23:10:00,65.8,65.8,29.67,SE,138,0.0,0.0,100,0.04,,---,0.99,0.00,VWS V14.01,2013-09-13 03:10:00,
2013-09-12 23:15:00,65.8,65.8,29.67,SE,138,0.0,0.0,100,0.05,,---,1.00,0.00,VWS V14.01,2013-09-13 03:15:00,
2013-09-12 23:20:00,65.8,65.8,29.67,SE,138,0.0,0.0,100,0.05,,---,1.00,0.00,VWS V14.01,2013-09-13 03:20:00,
2013-09-12 23:25:00,65.8,65.8,29.67,SE,138,0.0,0.0,100,0.06,,---,1.01,0.00,VWS V14.01,2013-09-13 03:25:00,
2013-09-12 23:30:00,65.8,65.8,29.67,SE,138,0.0,0.0,100,0.06,,---,1.01,0.00,VWS V14.01,2013-09-13 03:30:00,
2013-09-12 23:35:00,65.8,65.8,29.67,SE,130,0.0,3.0,100,0.07,,---,1.02,0.00,VWS V14.01,2013-09-13 03:35:00,
2013-09-12 23:40:00,65.6,65.6,29.67,SE,129,0.0,3.0,100,0.08,,---,1.03,0.00,VWS V14.01,2013-09-13 03:40:00,
2013-09-12 23:45:00,65.6,65.6,29.68,SSW,202,0.0,3.0,100,0.09,,---,1.04,0.00,VWS V14.01,2013-09-13 03:45:00,
2013-09-12 23:50:00,65.5,65.5,29.67,SSE,152,0.0,0.0,100,0.11,,---,1.06,0.00,VWS V14.01,2013-09-13 03:50:00,
2013-09-12 23:55:00,65.5,65.5,29.67,ENE,78,2.0,2.0,100,0.12,,---,1.07,0.00,VWS V14.01,2013-09-13 03:55:00,